Location: Monthurel
(49.0225°N, 3.5467°E)
Time: 23:23:59
(UTC+00:00)

Daily predictions for brighter satellites

Satellite Brightness Start Highest point End
(mag) Time Altitude Azimuth Time Altitude Azimuth Time Altitude Azimuth
CENTAUR R/B 4.2 17:41:15 10° NW 17:47:25 28° N 17:54:31 10° ENE
Cosmos 1943 Rocket 3.1 17:42:52 10° NNW 17:47:49 29° NE 17:52:43 10° ESE
ATLAS 3B R/B 3.0 17:41:59 10° SSW 17:48:41 56° ESE 17:55:55 10° NE
Cosmos 2322 3.7 17:43:25 10° SSW 17:49:06 72° ESE 17:54:50 10° NNE
Cosmos 1818 3.8 17:44:13 10° NW 17:49:44 82° SW 17:55:11 10° SSE
COSMO-SKYMED 1 2.6 17:45:29 10° NNE 17:49:48 60° E 17:54:05 10° S
Cosmos 1869 Rocket 4.4 17:46:37 10° SSE 17:50:18 27° E 17:53:58 10° NNE
Cosmos 2366 rocket 4.0 17:44:09 10° N 17:50:21 84° E 17:56:30 10° S
Cosmos 2333 Rocket 3.0 17:47:18 10° SW 17:52:51 55° NW 17:58:28 10° NNE
Okean 3 3.7 17:52:11 10° NNW 17:56:19 74° W 18:00:26 10° S
COSMOS 2428 2.7 17:51:47 10° SSW 17:57:23 66° ESE 18:03:01 10° NNE
Cosmos 1340 Rocket 3.2 17:53:28 10° NNW 17:57:31 70° W 18:01:30 10° S
SJ-6B 4.3 17:56:48 10° ESE 17:59:38 19° ENE 18:02:28 10° NNE
Okean 1-7 3.1 17:56:01 10° N 18:00:23 84° W 18:04:44 10° S
Nadezhda 3 Rocket 4.5 17:57:06 10° SSE 18:02:54 39° E 18:08:42 10° NNE
Okean O Rocket 3.1 18:02:39 10° ESE 18:05:51 20° ENE 18:09:03 10° NNE
Cosmos 2219 Rocket 2.7 18:01:49 10° SW 18:07:22 63° WNW 18:12:58 10° NNE
Meteor PRIRODA 3.9 18:04:49 10° S 18:08:20 70° WSW 18:11:54 10° NNW
Cosmos 1470 Rocket 4.1 18:04:03 10° SSW 18:08:23 63° WNW 18:12:48 10° N
Tiangong -0.1 18:07:14 10° SSW 18:09:23 17° SSE 18:11:32 10° SE
USA 305 4.2 18:12:09 10° W 18:13:36 15° SW 18:15:04 10° S
Cosmos 405 4.1 18:12:45 10° NNE 18:14:13 14° ENE 18:14:18 14° ENE
CZ-4B R/B 2.5 18:14:58 10° SSE 18:18:27 85° WSW 18:22:00 10° NNW
NOSS 2-2 (E) 3.8 18:15:59 10° WSW 18:19:06 47° NW 18:22:22 10° NNE
GEOS 3 Rocket 3.8 18:19:33 10° NE 18:24:57 79° NW 18:30:15 10° SW
PSLV R/B 4.4 18:22:49 10° SE 18:26:23 36° ENE 18:30:00 10° N
NOSS 3-1 (A) 3.3 18:23:08 10° SSW 18:27:57 49° ESE 18:33:41 10° NE
SME Rocket 4.2 18:23:00 10° SE 18:29:05 41° ENE 18:33:25 10° N
Cosmos 1733 Rocket 3.9 18:27:13 10° SE 18:30:52 26° E 18:34:30 10° NNE
Cosmos 1975 4.5 18:27:54 10° SW 18:31:30 36° WNW 18:35:09 10° N
IGS 5A 3.4 18:29:24 10° SSE 18:33:30 88° E 18:37:38 10° NNW
SPOT 1/Viking Rocket 4.4 18:30:18 16° ESE 18:33:31 29° ENE 18:37:55 10° N
Resurs 01 Rocket 3.1 18:32:25 17° E 18:33:33 19° ENE 18:36:37 10° NNE
USA 186 3.2 18:35:27 20° ENE 18:35:27 20° ENE 18:37:34 10° NNE
Landsat 4 3.9 18:33:10 13° SE 18:36:09 44° ENE 18:39:38 10° N
CZ-4B DEB 4.3 18:31:48 10° SSE 18:37:15 84° WSW 18:42:45 10° NNW
Cosmos 1269 Rocket 3.9 18:34:20 10° SSW 18:39:37 79° ESE 18:44:56 10° NNE
NOSS 2-2 (D) 4.0 18:37:45 10° WSW 18:40:49 41° NW 18:44:00 10° NNE
Cosmos 1980 3.7 18:35:50 10° SSW 18:41:22 62° ESE 18:46:57 10° NNE
NOSS 2-2 (C) 4.2 18:42:08 10° WSW 18:45:10 38° NW 18:48:20 10° NNE
Cosmos 2242 Rocket 3.8 18:41:37 10° NNW 18:46:09 78° W 18:50:41 10° S
Okean-O 3.9 18:46:44 21° ENE 18:47:21 22° ENE 18:50:44 10° NNE
Cosmos 1766 3.2 18:43:41 10° SSW 18:47:28 82° W 18:51:15 10° N
CZ-4B R/B 3.1 18:42:39 10° SSE 18:47:53 68° ENE 18:53:12 10° N
Cosmos 1867 3.6 18:43:18 10° SSW 18:48:37 59° ESE 18:54:00 10° NE
Cosmos 614 Rocket 4.1 18:43:40 10° SSW 18:48:43 76° WNW 18:53:50 10° NNE
Cosmos 1378 Rocket 4.1 18:46:57 10° N 18:50:56 34° ENE 18:52:14 28° ESE
Cosmos 1140 Rocket 4.1 18:46:31 10° SSE 18:51:04 33° ESE 18:55:40 10° NE
Cosmos 2278 Rocket 2.8 18:46:02 10° NW 18:51:37 60° WSW 18:57:10 10° S
MOS 1-B 4.3 18:49:16 10° SSE 18:55:01 74° ENE 19:00:49 10° NNW
ISS -0.8 18:54:41 10° WSW 18:55:51 11° SW 18:57:01 10° SSW
Feng Yun 1-1 Rocket 4.3 18:51:45 10° SSE 18:57:28 64° ENE 19:03:03 10° N
PAYLOAD B 4.4 18:51:57 10° SSE 18:57:30 77° WSW 19:03:05 10° NNW
CZ-4C R/B 3.2 18:54:24 10° NNE 18:57:42 43° E 18:59:35 22° SSE
Cosmos 1605 Rocket 4.2 18:53:01 10° N 18:58:52 45° ENE 19:02:32 22° SE
Cosmos 1934 Rocket 3.9 18:54:03 10° N 19:00:23 73° E 19:06:36 10° SSE
Cosmos 389 Rocket 3.1 18:58:54 10° N 19:01:01 31° NE 19:01:01 31° NE
Cosmos 1339 Rocket 4.5 18:55:59 10° S 19:02:08 61° E 19:08:25 10° NNE
USA 267 3.9 18:58:14 18° ENE 19:02:46 46° N 19:08:57 10° WNW
USA 276 4.1 19:01:40 10° SSW 19:02:13 14° SSW 19:02:13 14° SSW
NOSS 3-1 (C) 3.8 18:59:36 10° WSW 19:04:42 58° NW 19:10:54 10° NE
Cosmos 1535 Rocket 4.4 18:58:42 10° N 19:04:46 60° ENE 19:09:50 15° SSE
YAOGAN 1 4.2 19:07:16 10° SSW 19:11:12 34° W 19:15:10 10° NNW
Cosmos 2251 Rocket 3.8 19:06:17 10° S 19:11:13 41° ESE 19:16:09 10° NE
Cosmos 1674 Rocket 3.7 19:07:38 10° N 19:11:59 51° ENE 19:12:54 43° ESE
CZ-4 R/B 1.8 19:12:15 10° S 19:15:57 58° W 19:19:43 10° NNW
Cosmos 1656 Rocket 4.2 19:12:34 10° NNW 19:17:38 37° NE 19:18:43 34° ENE
Terra 4.1 19:19:07 10° NE 19:19:07 10° NE 19:19:27 10° NE
Cosmos 2237 Rocket 2.3 19:13:46 10° SSW 19:19:28 77° WNW 19:25:13 10° NNE
SL-4 R/B 3.2 19:16:11 10° SSW 19:19:00 28° S 19:19:00 28° S
Cosmos 2369 Rocket 2.8 19:14:57 10° NNW 19:20:07 37° NE 19:21:10 34° ENE
Lacrosse 5 2.1 19:16:00 10° NW 19:21:04 56° NNE 19:22:30 41° E
SL-16 R/B 2.4 19:23:40 10° S 19:29:01 46° ESE 19:34:27 10° NE
Cosmos 1470 3.2 19:25:43 10° SSW 19:29:31 60° WNW 19:33:22 10° N
IRIDIUM 103 4.5 19:26:41 10° N 19:31:46 48° E 19:31:54 48° E
Cosmos 1943 Rocket 2.6 19:26:22 10° NW 19:31:58 60° WSW 19:35:34 22° S
Cosmos 1727 Rocket 4.5 19:33:39 38° ENE 19:33:39 38° ENE 19:38:56 10° NNE
Meteor 1-22 Rocket 3.9 19:28:11 10° S 19:33:27 79° E 19:38:50 10° NNE
SJ-6B 3.8 19:30:49 17° SSW 19:33:41 47° W 19:37:33 10° NNW
CZ-4C R/B 3.9 19:29:34 10° NW 19:35:09 30° NNE 19:38:12 23° ENE
Cosmos 2221 Rocket 3.6 19:33:17 10° N 19:37:50 84° W 19:38:56 52° S
ATLAS 3B R/B 3.7 19:32:50 10° WSW 19:39:39 48° NW 19:46:58 10° NE
CENTAUR R/B 3.6 19:32:28 10° NW 19:40:03 49° NE 19:43:21 35° E
Okean O Rocket 2.2 19:39:33 27° S 19:41:46 57° W 19:46:10 10° NNW
ADEOS Rocket 3.4 19:38:43 27° SSE 19:43:17 80° ENE 19:50:26 10° NNW
Cosmos 2297 3.6 19:38:38 10° NNW 19:44:24 73° ENE 19:45:25 59° ESE
Tiangong 0.7 19:43:06 10° SW 19:43:35 13° SW 19:43:35 13° SW
Cosmos 1153 Rocket 4.4 19:43:03 10° N 19:49:15 65° ENE 19:50:18 56° ESE
Meteor 1-12 Rocket 4.4 19:43:27 10° SSW 19:49:17 78° WNW 19:55:17 10° N
IRIDIUM 106 4.2 19:44:54 10° N 19:50:08 69° E 19:50:08 69° E
CSL-04 Debris 4.5 19:48:22 27° S 19:51:22 64° WSW 19:56:46 10° NNW
MOS 1 4.2 19:53:45 61° E 19:53:56 61° ENE 19:59:30 10° N
Cosmos 2173 Rocket 4.4 19:48:13 10° N 19:53:29 42° ENE 19:53:29 42° ENE
Cosmos 407 Rocket 3.4 19:54:25 10° SSW 19:59:40 89° SE 20:05:02 10° NNE
USA 229 DEB 3.5 19:55:52 10° SW 20:02:06 87° NW 20:09:00 10° NE
USA 229 3.5 19:55:56 10° SW 20:02:11 87° NW 20:09:05 10° NE
Meteor 1-24 Rocket 4.1 19:57:33 10° NNW 20:02:48 55° W 20:04:58 33° SSW
NOSS 3-2 (A) 4.3 19:59:23 10° NW 20:06:18 51° NE 20:07:54 45° ENE
USA 186 4.5 20:08:04 19° WNW 20:08:04 19° WNW 20:09:29 10° NW
Meteor 2-5 Rocket 4.5 20:02:01 10° NNW 20:07:28 49° W 20:10:21 26° SSW
CSL-04 Rocket 4.3 20:05:53 33° SSW 20:07:58 51° W 20:13:11 10° NNW
Resurs 01 Rocket 2.1 20:09:57 58° WNW 20:09:57 58° WNW 20:14:00 10° NNW
SPOT 1/Viking Rocket 4.4 20:10:54 33° SSW 20:12:44 46° W 20:17:41 10° NNW
Cosmos 2100 Rocket 4.0 20:08:50 10° N 20:14:21 61° NE 20:14:21 61° NE
IRS-1C Rocket 4.1 20:16:30 76° NW 20:16:30 76° NW 20:21:24 10° NNW
Cosmos 1459 Rocket 4.2 20:10:23 10° N 20:16:04 58° NE 20:16:04 58° NE
NOSS 3-1 (A) 4.4 20:13:52 10° WSW 20:18:55 41° NNW 20:25:00 10° NE
Meteor 2-10 Rocket 4.2 20:20:30 51° NNE 20:20:30 51° NNE 20:24:49 10° NNE
Cosmos 468 Rocket 4.4 20:13:44 10° NNW 20:17:55 56° N 20:17:55 56° N
Okean-O 3.7 20:24:16 43° WNW 20:24:16 43° WNW 20:27:47 10° NNW
Cosmos 1763 Rocket 3.9 20:20:39 10° NNW 20:24:57 60° NW 20:24:57 60° NW
Cosmos 540 Rocket 4.2 20:24:21 10° NNW 20:28:04 49° NNW 20:28:04 49° NNW
Cosmos 1802 Rocket 4.4 20:36:19 10° N 20:41:14 54° NNE 20:41:14 54° NNE
USA 267 3.2 20:45:35 74° N 20:45:35 74° N 20:51:55 10° NW
NOSS 3-2 (C) 4.4 20:39:46 10° NW 20:46:39 50° NE 20:46:51 50° NE
Ariane Rocket 4.4 20:52:41 33° NNW 20:52:41 33° NNW 20:55:25 10° NNW
Terra 3.9 20:57:51 21° N 20:57:51 21° N 20:59:28 10° N
Gbstr 26 Del rocket 4.5 20:49:11 10° W 20:57:17 74° N 20:57:28 73° NNE
Lacrosse 5 3.7 20:59:09 10° WNW 21:01:41 27° W 21:01:41 27° W
Cosmos 2369 Rocket 3.4 20:58:57 10° NW 21:02:58 38° WNW 21:02:58 38° WNW
SL-16 R/B 3.5 21:08:03 10° WSW 21:13:16 37° NW 21:18:32 10° NNE
CZ-4C R/B 3.3 21:17:53 10° NW 21:23:20 56° N 21:23:20 56° N
USA 238 DEB 4.5 21:19:45 10° NW 21:25:31 49° N 21:25:31 49° N
USA 238 4.5 21:19:51 10° NW 21:25:37 49° N 21:25:37 49° N
CENTAUR R/B 3.4 21:23:10 10° NW 21:30:30 65° W 21:30:30 65° W
ATLAS 3B R/B 4.4 23:18:49 10° NW 23:25:25 31° NNE 23:25:25 31° NNE
